QPF
0.00 0.00 0.00 0.00 0.00 0.00 0.00 0.00 0.00 0.00 0.00 0.00 0.00 0.00 0.00 0.00 0.00 0.00 0.00 0.00 0.00 0.00 0.00 0.00 0.00 0.00 0.00 0.00 0.01 0.01 0.00 0.00 0.00 0.01 0.01 0.01 0.01 0.01 0.00 0.00 0.01 0.00
0.00 0.00 0.00 0.00 0.00 0.00 0.00 0.00 0.00 0.00 0.00 0.00 0.00 0.00 0.00 0.00 0.00 0.00 0.00 0.00 0.00 0.00 0.00 0.00 0.00 0.00 0.00 0.00 0.00 0.01 0.01 0.01 0.01 0.00 0.01 0.01 0.01 0.01 0.01 0.01 0.01 0.01
0.00 0.00 0.00 0.00 0.00 0.00 0.00 0.00 0.00 0.00 0.00 0.00 0.00 0.00 0.00 0.00 0.00 0.00 0.00 0.00 0.00 0.00 0.00 0.00 0.00 0.00 0.00 0.00 0.01 0.01 0.01 0.01 0.01 0.01 0.01 0.01 0.01 0.01 0.01 0.01 0.01 0.01
0.00 0.00 0.00 0.00 0.00 0.00 0.00 0.00 0.00 0.00 0.00 0.00 0.00 0.00 0.00 0.00 0.00 0.00 0.00 0.00 0.00 0.00 0.00 0.00 0.00 0.00 0.00 0.00 0.00 0.00 0.00 0.01 0.00 0.01 0.01 0.01 0.01 0.01 0.01 0.01 0.01 0.01
0.00 0.00 0.00 0.00 0.00 0.00 0.00 0.00 0.00 0.00 0.00 0.00 0.00 0.00 0.00 0.00 0.00 0.00 0.00 0.00 0.00 0.00 0.00 0.00 0.00 0.00 0.00 0.00 0.00 0.00 0.00 0.00 0.00 0.00 0.00 0.00 0.00 0.01 0.00 0.01 0.01 0.01
0.00 0.00 0.00 0.00 0.00 0.00 0.00 0.00 0.00 0.00 0.00 0.00 0.00 0.00 0.00 0.00 0.00 0.00 0.00 0.00 0.00 0.00 0.00 0.00 0.00 0.00 0.00 0.00 0.00 0.00 0.00 0.00 0.00 0.00 0.00 0.00 0.00 0.00 0.01 0.01 0.01 0.01
0.00 0.00 0.00 0.00 0.00 0.00 0.00 0.00 0.00 0.00 0.00 0.00 0.00 0.00 0.00 0.00 0.00 0.00 0.00 0.00 0.00 0.00 0.00 0.00 0.00 0.00 0.00 0.00 0.00 0.00 0.00 0.00 0.00 0.00 0.00 0.00 0.00 0.00 0.00 0.01 0.00 0.01
0.00 0.00 0.00 0.00 0.00 0.00 0.00 0.00 0.00 0.00 0.00 0.00 0.00 0.00 0.00 0.00 0.00 0.00 0.00 0.00 0.00 0.00 0.00 0.00 0.00 0.00 0.00 0.00 0.00 0.00 0.00 0.00 0.00 0.00 0.00 0.00 0.00 0.00 0.00 0.00 0.00 0.00
0.00 0.00 0.00 0.00 0.00 0.00 0.00 0.00 0.00 0.00 0.00 0.00 0.00 0.00 0.00 0.00 0.00 0.00 0.00 0.00 0.00 0.00 0.00 0.00 0.00 0.00 0.00 0.00 0.00 0.00 0.00 0.00 0.00 0.00 0.00 0.00 0.00 0.00 0.00 0.00 0.00 0.00
0.00 0.00 0.00 0.00 0.00 0.00 0.00 0.00 0.00 0.00 0.00 0.00 0.00 0.00 0.00 0.00 0.00 0.00 0.00 0.00 0.00 0.00 0.00 0.00 0.00 0.00 0.00 0.00 0.00 0.00 0.00 0.00 0.00 0.00 0.00 0.00 0.00 0.00 0.00 0.00 0.00 0.00
0.00 0.00 0.00 0.00 0.00 0.00 0.00 0.00 0.00 0.00 0.00 0.00 0.00 0.00 0.00 0.00 0.00 0.00 0.00 0.00 0.00 0.00 0.00 0.00 0.00 0.00 0.00 0.00 0.00 0.00 0.00 0.00 0.00 0.00 0.00 0.00 0.00 0.00 0.00 0.00 0.00 0.00
0.00 0.00 0.00 0.00 0.00 0.00 0.00 0.00 0.00 0.00 0.00 0.00 0.00 0.00 0.00 0.00 0.00 0.00 0.00 0.00 0.00 0.00 0.00 0.00 0.00 0.00 0.00 0.00 0.00 0.00 0.00 0.00 0.00 0.00 0.00 0.00 0.00 0.00 0.00 0.00 0.00 0.00
0.00 0.00 0.00 0.00 0.00 0.00 0.00 0.00 0.00 0.00 0.00 0.00 0.00 0.00 0.00 0.00 0.00 0.00 0.00 0.00 0.00 0.00 0.00 0.00 0.00 0.00 0.00 0.00 0.00 0.00 0.00 0.00 0.00 0.00 0.00 0.00 0.00 0.00 0.00 0.00 0.00 0.00
0.00 0.00 0.00 0.00 0.00 0.00 0.00 0.00 0.00 0.00 0.00 0.00 0.00 0.00 0.00 0.00 0.00 0.00 0.00 0.00 0.00 0.00 0.00 0.00 0.00 0.00 0.00 0.00 0.00 0.00 0.00 0.00 0.00 0.00 0.00 0.00 0.00 0.00 0.00 0.00 0.00 0.00
0.00 0.00 0.00 0.00 0.00 0.00 0.00 0.00 0.00 0.00 0.00 0.00 0.00 0.00 0.00 0.00 0.00 0.00 0.00 0.00 0.00 0.00 0.00 0.00 0.00 0.00 0.00 0.00 0.00 0.00 0.00 0.00 0.00 0.00 0.00 0.00 0.00 0.00 0.00 0.00 0.00 0.00
0.00 0.00 0.00 0.00 0.00 0.00 0.00 0.00 0.00 0.00 0.00 0.00 0.00 0.00 0.00 0.00 0.00 0.00 0.00 0.00 0.00 0.00 0.00 0.00 0.00 0.00 0.00 0.00 0.00 0.00 0.00 0.00 0.00 0.00 0.00 0.00 0.00 0.00 0.00 0.00 0.00 0.00
0.00 0.00 0.00 0.00 0.00 0.00 0.00 0.00 0.00 0.00 0.00 0.00 0.00 0.00 0.00 0.00 0.00 0.00 0.00 0.00 0.00 0.00 0.00 0.00 0.00 0.00 0.00 0.00 0.00 0.00 0.00 0.00 0.00 0.00 0.00 0.00 0.00 0.00 0.00 0.00 0.00 0.00
0.00 0.00 0.00 0.00 0.00 0.00 0.00 0.00 0.00 0.00 0.00 0.00 0.00 0.00 0.00 0.00 0.00 0.00 0.00 0.00 0.00 0.00 0.00 0.00 0.00 0.00 0.00 0.00 0.00 0.00 0.00 0.00 0.00 0.00 0.00 0.00 0.00 0.00 0.00 0.00 0.00 0.00
0.00 0.00 0.00 0.00 0.00 0.00 0.00 0.00 0.00 0.00 0.00 0.00 0.00 0.00 0.00 0.00 0.00 0.00 0.00 0.00 0.00 0.00 0.00 0.00 0.00 0.00 0.00 0.00 0.00 0.00 0.00 0.00 0.00 0.00 0.00 0.00 0.00 0.00 0.00 0.00 0.00 0.00
0.00 0.00 0.00 0.00 0.00 0.00 0.00 0.00 0.00 0.00 0.00 0.00 0.00 0.00 0.00 0.00 0.00 0.00 0.00 0.00 0.00 0.00 0.00 0.00 0.00 0.00 0.00 0.00 0.00 0.00 0.00 0.00 0.00 0.00 0.00 0.00 0.00 0.00 0.00 0.00 0.00 0.00
0.00 0.00 0.00 0.00 0.00 0.00 0.00 0.00 0.00 0.00 0.00 0.00 0.00 0.00 0.00 0.00 0.00 0.00 0.00 0.00 0.00 0.00 0.00 0.00 0.00 0.00 0.00 0.00 0.00 0.01 0.01 0.00 0.00 0.00 0.00 0.00 0.00 0.00 0.00 0.00 0.00 0.00
0.00 0.00 0.00 0.00 0.00 0.00 0.00 0.00 0.00 0.00 0.00 0.00 0.00 0.00 0.00 0.00 0.00 0.00 0.00 0.00 0.00 0.00 0.00 0.00 0.00 0.00 0.00 0.00 0.00 0.01 0.01 0.00 0.00 0.00 0.00 0.00 0.00 0.00 0.00 0.00 0.00 0.00
0.00 0.00 0.00 0.00 0.00 0.00 0.00 0.00 0.00 0.00 0.00 0.00 0.00 0.00 0.00 0.00 0.00 0.00 0.00 0.00 0.00 0.00 0.00 0.00 0.00 0.00 0.00 0.00 0.00 0.01 0.01 0.00 0.00 0.00 0.00 0.00 0.00 0.00 0.00 0.00 0.00 0.00
0.00 0.00 0.00 0.00 0.00 0.00 0.00 0.00 0.00 0.00 0.00 0.00 0.01 0.00 0.00 0.00 0.00 0.00 0.00 0.00 0.00 0.00 0.00 0.01 0.00 0.00 0.00 0.00 0.01 0.01 0.01 0.01 0.00 0.00 0.00 0.00 0.00 0.00 0.00 0.00 0.00 0.00
0.00 0.00 0.00 0.00 0.00 0.00 0.00 0.00 0.00 0.00 0.00 0.00 0.00 0.00 0.00 0.00 0.00 0.00 0.00 0.00 0.00 0.00 0.00 0.01 0.00 0.00 0.00 0.01 0.01 0.01 0.01 0.01 0.01 0.00 0.00 0.00 0.00 0.00 0.00 0.00 0.00 0.00
0.00 0.00 0.00 0.00 0.00 0.00 0.00 0.00 0.00 0.00 0.00 0.00 0.00 0.00 0.00 0.00 0.00 0.00 0.00 0.00 0.00 0.00 0.00 0.00 0.00 0.00 0.00 0.01 0.01 0.01 0.01 0.01 0.01 0.01 0.00 0.00 0.00 0.00 0.00 0.00 0.00 0.00
MSLP
1020.23 1019.81 1019.39 1018.87 1018.35 1017.95 1017.43 1016.93 1016.39 1015.91 1015.45 1014.97 1014.45 1013.91 1013.39 1012.85 1012.47 1012.15 1011.81 1011.51 1011.25 1011.03 1010.81 1010.67 1010.57 1010.49 1010.41 1010.39 1010.37 1010.35 1010.25 1010.21 1010.17 1010.07 1010.07 1010.07 1010.07 1010.09 1010.09 1010.01 1009.97 1009.93
1020.63 1020.31 1019.87 1019.47 1018.91 1018.39 1017.91 1017.43 1016.95 1016.49 1015.97 1015.49 1015.07 1014.63 1014.11 1013.71 1013.21 1012.75 1012.23 1011.81 1011.41 1011.11 1010.81 1010.59 1010.39 1010.25 1010.17 1010.11 1010.05 1010.09 1010.03 1009.99 1009.95 1009.85 1009.85 1009.77 1009.73 1009.71 1009.69 1009.63 1009.59 1009.53
1020.97 1020.57 1020.21 1019.85 1019.35 1018.85 1018.29 1017.75 1017.35 1016.87 1016.43 1015.95 1015.47 1014.95 1014.43 1014.01 1013.61 1013.13 1012.69 1012.25 1011.79 1011.29 1010.93 1010.61 1010.35 1010.17 1010.05 1009.99 1009.91 1009.85 1009.81 1009.77 1009.77 1009.57 1009.55 1009.55 1009.49 1009.45 1009.29 1009.25 1009.19 1009.17
1021.41 1021.25 1020.87 1020.47 1019.97 1019.41 1018.77 1018.19 1017.71 1017.23 1016.71 1016.19 1015.79 1015.35 1014.83 1014.39 1013.87 1013.37 1012.97 1012.61 1012.15 1011.71 1011.29 1010.97 1010.69 1010.29 1009.95 1009.77 1009.73 1009.67 1009.57 1009.49 1009.35 1009.35 1009.31 1009.11 1009.01 1009.03 1009.03 1009.01 1008.89 1008.85
1021.87 1021.53 1021.29 1020.99 1020.55 1019.99 1019.33 1018.75 1018.19 1017.69 1017.23 1016.77 1016.17 1015.59 1015.07 1014.67 1014.13 1013.67 1013.31 1012.97 1012.63 1012.19 1011.75 1011.33 1010.93 1010.69 1010.41 1009.99 1009.65 1009.41 1009.23 1009.13 1009.03 1009.05 1009.01 1008.89 1008.67 1008.65 1008.59 1008.59 1008.53 1008.53
1022.33 1022.05 1021.73 1021.35 1020.91 1020.39 1019.83 1019.45 1018.89 1018.29 1017.69 1017.13 1016.75 1016.11 1015.63 1015.21 1014.71 1014.27 1013.89 1013.47 1013.07 1012.71 1012.21 1011.69 1011.29 1010.89 1010.57 1010.35 1010.03 1009.53 1009.17 1008.93 1008.69 1008.71 1008.75 1008.69 1008.53 1008.41 1008.39 1008.31 1008.21 1008.11
1022.55 1022.15 1021.87 1021.61 1021.25 1020.81 1020.41 1019.97 1019.45 1018.89 1018.33 1017.85 1017.23 1016.63 1016.15 1015.73 1015.21 1014.79 1014.39 1014.01 1013.57 1013.13 1012.73 1012.29 1011.83 1011.41 1010.97 1010.61 1010.23 1009.83 1009.45 1009.09 1008.85 1008.77 1008.65 1008.49 1008.37 1008.27 1008.19 1008.15 1008.03 1007.91
1022.89 1022.47 1022.13 1021.83 1021.45 1020.99 1020.65 1020.33 1019.89 1019.37 1018.83 1018.31 1017.81 1017.17 1016.69 1016.21 1015.73 1015.27 1014.87 1014.45 1013.99 1013.57 1013.15 1012.79 1012.39 1011.91 1011.47 1011.05 1010.67 1010.19 1009.71 1009.41 1009.15 1008.79 1008.57 1008.39 1008.27 1008.17 1008.03 1007.95 1007.89 1007.81
1023.09 1022.67 1022.31 1021.93 1021.53 1021.11 1020.83 1020.53 1020.15 1019.75 1019.31 1018.93 1018.37 1017.73 1017.23 1016.77 1016.17 1015.67 1015.25 1014.79 1014.41 1013.99 1013.57 1013.21 1012.87 1012.49 1012.05 1011.63 1011.19 1010.73 1010.25 1009.73 1009.37 1009.09 1008.83 1008.53 1008.25 1007.95 1007.75 1007.67 1007.61 1007.49
1023.41 1023.05 1022.63 1022.19 1021.79 1021.35 1021.03 1020.65 1020.31 1019.93 1019.57 1019.29 1018.81 1018.27 1017.77 1017.17 1016.67 1016.09 1015.63 1015.25 1014.83 1014.37 1013.97 1013.57 1013.15 1012.79 1012.43 1012.11 1011.71 1011.21 1010.71 1010.19 1009.71 1009.33 1008.99 1008.71 1008.47 1008.19 1007.91 1007.73 1007.49 1007.27
1023.65 1023.29 1022.99 1022.61 1022.23 1021.77 1021.35 1020.87 1020.43 1020.01 1019.61 1019.29 1018.87 1018.51 1018.15 1017.59 1016.97 1016.47 1015.99 1015.49 1015.11 1014.75 1014.31 1013.91 1013.53 1013.11 1012.71 1012.31 1011.95 1011.61 1011.19 1010.65 1010.13 1009.65 1009.17 1008.75 1008.43 1008.17 1008.03 1007.89 1007.63 1007.37
1023.93 1023.63 1023.35 1023.01 1022.63 1022.13 1021.63 1021.13 1020.65 1020.19 1019.77 1019.35 1019.05 1018.63 1018.21 1017.85 1017.33 1016.75 1016.29 1015.71 1015.23 1014.75 1014.39 1014.03 1013.63 1013.31 1012.91 1012.45 1012.03 1011.69 1011.35 1010.97 1010.51 1010.01 1009.47 1009.01 1008.57 1008.21 1007.93 1007.71 1007.53 1007.29
1024.17 1023.89 1023.57 1023.27 1022.91 1022.53 1022.03 1021.47 1020.95 1020.47 1019.99 1019.53 1019.09 1018.73 1018.27 1017.77 1017.39 1017.03 1016.49 1016.01 1015.43 1014.91 1014.47 1014.05 1013.67 1013.35 1012.93 1012.45 1012.05 1011.77 1011.51 1011.23 1010.89 1010.45 1009.89 1009.33 1008.81 1008.41 1008.07 1007.77 1007.53 1007.31
1024.35 1024.09 1023.75 1023.41 1023.09 1022.65 1022.15 1021.61 1021.13 1020.65 1020.17 1019.65 1019.19 1018.69 1018.21 1017.87 1017.49 1017.07 1016.65 1016.27 1015.69 1015.11 1014.65 1014.19 1013.73 1013.27 1012.89 1012.51 1012.29 1012.03 1011.63 1011.27 1010.97 1010.63 1010.17 1009.65 1009.15 1008.73 1008.37 1008.05 1007.75 1007.43
1024.43 1024.13 1023.83 1023.53 1023.17 1022.71 1022.17 1021.69 1021.21 1020.75 1020.27 1019.79 1019.29 1018.75 1018.23 1017.85 1017.47 1017.15 1016.75 1016.25 1015.79 1015.39 1014.91 1014.49 1014.05 1013.59 1013.13 1012.99 1012.83 1012.27 1011.81 1011.27 1010.85 1010.51 1010.17 1009.85 1009.47 1009.09 1008.71 1008.35 1007.95 1007.57
1024.39 1024.15 1023.93 1023.69 1023.35 1022.79 1022.27 1021.75 1021.25 1020.75 1020.25 1019.79 1019.31 1018.79 1018.27 1017.83 1017.47 1017.11 1016.83 1016.43 1015.89 1015.47 1015.15 1014.75 1014.31 1013.85 1013.57 1013.63 1013.49 1012.99 1012.25 1011.57 1010.95 1010.43 1010.05 1009.67 1009.39 1009.05 1008.67 1008.41 1008.13 1007.87
1024.39 1024.17 1023.99 1023.75 1023.37 1022.89 1022.35 1021.81 1021.29 1020.81 1020.27 1019.71 1019.21 1018.75 1018.29 1017.81 1017.43 1017.05 1016.67 1016.33 1015.99 1015.55 1015.17 1014.85 1014.47 1014.09 1013.93 1013.65 1013.33 1013.07 1012.69 1011.95 1011.27 1010.45 1009.85 1009.45 1009.17 1008.91 1008.55 1008.27 1008.05 1007.83
1024.61 1024.45 1024.31 1023.91 1023.45 1022.91 1022.35 1021.83 1021.29 1020.77 1020.21 1019.67 1019.13 1018.67 1018.23 1017.81 1017.41 1016.99 1016.57 1016.23 1015.85 1015.49 1015.17 1014.79 1014.39 1014.17 1013.97 1013.65 1013.33 1013.01 1012.75 1012.23 1011.51 1010.73 1009.93 1009.31 1008.95 1008.69 1008.43 1008.17 1007.89 1007.63
1024.83 1024.81 1024.55 1024.09 1023.57 1022.97 1022.43 1021.87 1021.27 1020.65 1020.07 1019.49 1019.03 1018.63 1018.23 1017.83 1017.33 1016.87 1016.53 1016.13 1015.81 1015.43 1015.03 1014.65 1014.29 1014.13 1013.97 1013.63 1013.29 1013.01 1012.63 1012.23 1011.55 1010.87 1010.23 1009.59 1009.13 1008.79 1008.49 1008.17 1007.85 1007.55
1025.13 1024.99 1024.63 1024.19 1023.63 1023.11 1022.57 1021.95 1021.31 1020.63 1019.99 1019.47 1018.93 1018.45 1018.09 1017.71 1017.31 1016.91 1016.45 1016.07 1015.75 1015.37 1014.91 1014.51 1014.21 1013.97 1013.77 1013.47 1013.13 1012.81 1012.45 1012.03 1011.33 1010.73 1010.25 1009.85 1009.45 1009.03 1008.61 1008.21 1007.91 1007.67
1025.35 1025.09 1024.63 1024.13 1023.61 1023.11 1022.53 1021.99 1021.41 1020.71 1020.07 1019.49 1018.95 1018.53 1018.09 1017.61 1017.19 1016.73 1016.35 1015.97 1015.59 1015.21 1014.81 1014.39 1014.03 1013.77 1013.51 1013.23 1012.91 1012.57 1012.15 1011.71 1011.07 1010.55 1010.13 1009.77 1009.39 1008.99 1008.59 1008.17 1007.85 1007.57
1025.57 1025.21 1024.73 1024.25 1023.71 1023.17 1022.67 1022.03 1021.35 1020.83 1020.23 1019.61 1019.07 1018.59 1018.07 1017.61 1017.11 1016.71 1016.19 1015.71 1015.33 1015.03 1014.65 1014.19 1013.67 1013.43 1013.29 1013.07 1012.73 1012.37 1011.95 1011.45 1010.93 1010.47 1010.01 1009.53 1009.09 1008.77 1008.47 1008.07 1007.69 1007.39
1025.83 1025.45 1024.91 1024.35 1023.85 1023.33 1022.79 1022.19 1021.53 1020.93 1020.39 1019.83 1019.23 1018.73 1018.19 1017.71 1017.13 1016.55 1016.03 1015.53 1015.07 1014.69 1014.33 1013.89 1013.41 1013.11 1012.97 1012.83 1012.53 1012.19 1011.81 1011.35 1010.87 1010.41 1009.95 1009.47 1009.03 1008.59 1008.23 1007.87 1007.59 1007.35
1025.93 1025.59 1025.07 1024.45 1023.93 1023.49 1022.91 1022.27 1021.77 1021.25 1020.73 1020.05 1019.49 1018.91 1018.27 1017.75 1017.13 1016.51 1015.99 1015.43 1014.89 1014.45 1014.09 1013.65 1013.15 1012.81 1012.67 1012.49 1012.29 1011.97 1011.73 1011.33 1010.85 1010.43 1010.05 1009.61 1009.03 1008.57 1008.13 1007.71 1007.39 1007.31
1026.01 1025.57 1025.13 1024.63 1024.13 1023.61 1023.05 1022.49 1021.95 1021.37 1020.79 1020.29 1019.75 1019.15 1018.51 1017.87 1017.29 1016.69 1015.97 1015.35 1014.81 1014.33 1013.85 1013.55 1013.01 1012.51 1012.35 1012.21 1012.05 1011.77 1011.57 1011.29 1010.95 1010.61 1010.25 1009.85 1009.31 1008.73 1008.31 1007.87 1007.49 1007.19
1026.15 1025.69 1025.25 1024.83 1024.33 1023.69 1023.13 1022.67 1022.13 1021.51 1020.91 1020.31 1019.83 1019.35 1018.69 1018.03 1017.41 1016.83 1016.17 1015.45 1014.79 1014.19 1013.65 1013.21 1012.81 1012.41 1012.17 1012.03 1011.87 1011.63 1011.45 1011.27 1010.99 1010.71 1010.45 1009.97 1009.57 1009.21 1008.69 1008.17 1007.73 1007.21
Thickness
5559 5562 5565 5569 5573 5577 5580 5585 5589 5593 5597 5601 5607 5611 5615 5618 5621 5624 5626 5629 5631 5633 5635 5636 5637 5639 5639 5639 5639 5639 5641 5640 5640 5641 5640 5640 5641 5640 5640 5641 5641 5641
5547 5550 5553 5556 5561 5565 5569 5573 5577 5581 5584 5588 5593 5597 5601 5605 5607 5611 5614 5617 5621 5623 5626 5628 5630 5631 5632 5633 5633 5633 5635 5635 5635 5636 5635 5636 5636 5636 5637 5637 5637 5637
5535 5538 5542 5544 5548 5552 5557 5561 5565 5568 5572 5575 5580 5585 5589 5593 5595 5599 5602 5606 5610 5613 5616 5618 5620 5623 5624 5625 5626 5626 5627 5628 5629 5629 5628 5630 5631 5630 5631 5631 5632 5632
5524 5526 5528 5530 5534 5539 5543 5548 5552 5556 5560 5564 5568 5572 5576 5580 5584 5588 5591 5593 5597 5600 5604 5607 5609 5612 5615 5617 5618 5619 5621 5621 5622 5621 5622 5624 5625 5625 5625 5625 5625 5625
5511 5513 5515 5518 5521 5525 5530 5534 5538 5542 5546 5550 5554 5559 5563 5566 5570 5574 5577 5580 5583 5586 5590 5594 5597 5600 5602 5605 5609 5611 5613 5614 5615 5614 5615 5617 5618 5618 5618 5618 5618 5619
5499 5501 5504 5507 5509 5513 5517 5520 5524 5528 5533 5536 5540 5545 5549 5552 5556 5560 5562 5566 5569 5572 5576 5580 5584 5587 5589 5592 5596 5600 5603 5605 5607 5606 5607 5608 5609 5609 5610 5610 5611 5612
5487 5490 5492 5495 5498 5501 5504 5507 5511 5515 5519 5523 5527 5532 5535 5538 5542 5545 5548 5552 5554 5558 5561 5564 5568 5572 5575 5579 5583 5587 5590 5593 5596 5597 5597 5599 5599 5600 5601 5601 5602 5603
5475 5478 5481 5484 5486 5489 5492 5495 5498 5502 5505 5509 5513 5517 5521 5525 5529 5532 5535 5538 5541 5544 5547 5550 5553 5556 5560 5564 5568 5572 5576 5580 5583 5585 5587 5589 5590 5591 5591 5591 5592 5593
5464 5467 5470 5473 5475 5478 5480 5482 5485 5489 5491 5495 5499 5503 5506 5510 5514 5518 5522 5525 5527 5531 5534 5536 5539 5542 5545 5548 5552 5556 5561 5565 5568 5571 5574 5577 5578 5581 5582 5582 5583 5584
5453 5455 5457 5460 5463 5466 5468 5470 5473 5476 5478 5481 5484 5488 5492 5495 5499 5503 5507 5510 5513 5516 5519 5522 5525 5528 5531 5533 5536 5540 5545 5549 5554 5557 5560 5563 5566 5568 5569 5570 5571 5574
5440 5442 5444 5447 5450 5452 5455 5458 5461 5463 5466 5468 5471 5474 5477 5480 5485 5488 5492 5496 5500 5502 5505 5508 5510 5514 5516 5519 5522 5525 5529 5534 5538 5542 5546 5550 5553 5555 5556 5557 5558 5561
5427 5429 5431 5433 5435 5438 5442 5445 5448 5451 5454 5456 5458 5461 5464 5467 5470 5474 5478 5481 5485 5488 5492 5495 5497 5499 5502 5505 5508 5511 5514 5518 5522 5527 5531 5536 5540 5543 5544 5546 5547 5549
5414 5416 5417 5420 5422 5424 5428 5431 5434 5438 5441 5443 5446 5449 5452 5455 5458 5460 5463 5467 5471 5475 5478 5481 5484 5487 5489 5492 5494 5497 5499 5502 5505 5509 5514 5519 5524 5527 5531 5533 5535 5536
5401 5403 5405 5407 5409 5411 5415 5418 5421 5424 5427 5431 5434 5436 5440 5443 5445 5448 5451 5453 5457 5460 5463 5467 5471 5474 5475 5477 5479 5482 5485 5488 5491 5494 5497 5502 5506 5510 5513 5516 5520 5522
5389 5390 5392 5393 5396 5399 5402 5405 5408 5411 5414 5417 5420 5423 5427 5430 5432 5435 5438 5441 5444 5446 5449 5452 5455 5459 5461 5461 5462 5466 5470 5474 5478 5481 5484 5487 5490 5494 5496 5499 5502 5506
5375 5377 5379 5380 5382 5385 5389 5392 5395 5398 5401 5404 5407 5410 5413 5416 5419 5422 5424 5427 5430 5434 5436 5438 5441 5444 5445 5445 5446 5449 5454 5459 5464 5469 5472 5475 5478 5481 5484 5487 5488 5491
5363 5364 5364 5366 5367 5371 5375 5378 5381 5384 5388 5391 5395 5397 5400 5402 5405 5408 5410 5412 5416 5420 5423 5425 5428 5430 5430 5432 5432 5434 5438 5443 5449 5455 5460 5463 5466 5469 5472 5475 5477 5479
5349 5350 5350 5352 5353 5357 5360 5363 5367 5370 5373 5378 5381 5383 5386 5389 5391 5393 5396 5398 5401 5405 5409 5411 5415 5416 5416 5418 5420 5421 5423 5427 5433 5441 5446 5451 5454 5457 5459 5462 5465 5467
5336 5336 5337 5339 5341 5343 5346 5349 5352 5356 5360 5363 5367 5369 5371 5374 5377 5380 5382 5385 5386 5389 5394 5397 5401 5402 5402 5403 5406 5407 5409 5412 5418 5425 5430 5435 5439 5442 5445 5448 5451 5454
5322 5322 5324 5327 5328 5331 5333 5336 5338 5342 5346 5349 5352 5355 5357 5359 5362 5365 5368 5371 5372 5375 5379 5383 5385 5387 5388 5389 5391 5393 5395 5398 5404 5410 5414 5419 5423 5426 5430 5434 5437 5439
5305 5307 5310 5313 5315 5318 5320 5322 5325 5328 5332 5334 5337 5340 5343 5346 5348 5351 5353 5357 5359 5360 5364 5368 5372 5373 5373 5375 5377 5379 5381 5385 5390 5396 5400 5404 5408 5411 5415 5419 5422 5425
5288 5291 5295 5297 5299 5302 5304 5307 5311 5313 5316 5319 5322 5325 5328 5330 5333 5336 5340 5343 5346 5347 5349 5354 5359 5361 5360 5361 5363 5364 5367 5371 5375 5380 5385 5390 5395 5397 5401 5404 5407 5410
5271 5273 5277 5280 5282 5285 5288 5290 5293 5296 5299 5302 5305 5309 5313 5315 5317 5322 5326 5329 5332 5335 5336 5339 5345 5348 5347 5347 5349 5350 5351 5355 5360 5365 5370 5375 5379 5384 5387 5391 5394 5396
5253 5254 5257 5261 5264 5266 5269 5272 5275 5277 5280 5283 5286 5290 5295 5299 5301 5305 5311 5314 5317 5320 5322 5325 5330 5334 5334 5333 5334 5336 5336 5339 5345 5349 5354 5358 5363 5368 5373 5377 5380 5382
5234 5236 5238 5241 5243 5246 5249 5251 5255 5257 5261 5264 5266 5270 5275 5280 5284 5287 5293 5298 5301 5304 5308 5310 5315 5321 5321 5319 5319 5321 5321 5322 5327 5332 5337 5341 5346 5350 5356 5361 5365 5368
5214 5216 5217 5218 5221 5225 5228 5230 5232 5236 5240 5243 5245 5249 5254 5260 5265 5268 5273 5280 5284 5288 5292 5296 5300 5304 5306 5305 5304 5306 5307 5306 5309 5314 5319 5323 5328 5333 5339 5345 5349 5353